Location: Bullfrog
(37.5121°N, 110.7330°W)
Time: 13:50:02
(UTC-06:00)

N. Korean satellite - Pass Details

Date: 04 October 2021
Orbit: 450 x 495 km, 97.3° (Epoch: 23 October)

Event Time Altitude Azimuth Distance (km) Brightness Sun altitude
Rises 05:53:06 0° 27° (NNE) 2,560 10.7 -18.3°
Reaches altitude 10° 05:55:31 10° 44° (NE) 1,681 10.0 -17.8°
Maximum altitude 05:58:22 22° 95° (E) 1,130 9.3 -17.3°
Drops below altitude 10° 06:01:12 10° 147° (SSE) 1,681 9.6 -16.7°
Sets 06:03:37 0° 163° (SSE) 2,561 10.4 -16.2°
